When you browse on this site, cookies collect data to enhance your experience and personalize the content and advertising you see.
Visit our Privacy Policy to learn more. By continuing to use the site, you agree to this use of cookies and data.

Hourly Weather Szeged

Today, 11 August, Tuesday

Time Temperature Precipitation Wind Pressure Humidity
00:00 +24°C° 0 mm 2 mps 754 mmHg 64%
01:00 +24°C° 0 mm 1 mps 754 mmHg 66%
02:00 +23°C° 0 mm 1 mps 754 mmHg 68%
03:00 +23°C° 0 mm 2 mps 754 mmHg 69%
04:00 +23°C° 0 mm 2 mps 754 mmHg 71%
05:00 +24°C° 0 mm 2 mps 754 mmHg 68%
06:00 +25°C° 0 mm 1 mps 755 mmHg 65%
07:00 +26°C° 0 mm 1 mps 755 mmHg 62%
08:00 +27°C° 0 mm 2 mps 755 mmHg 57%
09:00 +29°C° 0 mm 2 mps 755 mmHg 52%
10:00 +31°C° 0 mm 2 mps 755 mmHg 47%
11:00 +31°C° 0 mm 2 mps 755 mmHg 44%
12:00 +32°C° 0 mm 2 mps 755 mmHg 41%
13:00 +34°C° 0 mm 2 mps 755 mmHg 38%
14:00 +34°C° 0 mm 2 mps 754 mmHg 39%
15:00 +34°C° 0 mm 2 mps 754 mmHg 40%
16:00 +34°C° 0 mm 3 mps 754 mmHg 41%
17:00 +31°C° 0 mm 3 mps 754 mmHg 46%
18:00 +29°C° 0 mm 2 mps 754 mmHg 51%
19:00 +28°C° 0 mm 2 mps 754 mmHg 56%
20:00 +27°C° 0.3 mm 2 mps 754 mmHg 61%
21:00 +25°C° 0.3 mm 2 mps 754 mmHg 65%
22:00 +24°C° 0.3 mm 2 mps 754 mmHg 70%
23:00 +24°C° 0.3 mm 2 mps 754 mmHg 71%

Tomorrow, 12 August, Wednesday

Time Temperature Precipitation Wind Pressure Humidity
00:00 +24°C° 0.3 mm 1 mps 754 mmHg 72%
01:00 +23°C° 0.3 mm 1 mps 754 mmHg 73%
02:00 +23°C° 0 mm 1 mps 754 mmHg 75%
03:00 +23°C° 0 mm 2 mps 754 mmHg 77%
04:00 +21°C° 0 mm 2 mps 754 mmHg 79%
05:00 +23°C° 0.1 mm 2 mps 755 mmHg 76%
06:00 +24°C° 0.1 mm 2 mps 755 mmHg 73%
07:00 +25°C° 0.1 mm 2 mps 755 mmHg 71%
08:00 +26°C° 0 mm 2 mps 755 mmHg 64%
09:00 +28°C° 0 mm 3 mps 755 mmHg 57%
10:00 +29°C° 0 mm 3 mps 755 mmHg 50%
11:00 +30°C° 0 mm 3 mps 755 mmHg 46%
12:00 +31°C° 0 mm 3 mps 755 mmHg 43%
13:00 +33°C° 0 mm 3 mps 754 mmHg 39%
14:00 +33°C° 0 mm 3 mps 754 mmHg 39%
15:00 +33°C° 0 mm 4 mps 754 mmHg 39%
16:00 +33°C° 0 mm 4 mps 754 mmHg 39%
17:00 +30°C° 0 mm 3 mps 754 mmHg 46%
18:00 +28°C° 0 mm 3 mps 754 mmHg 52%
19:00 +27°C° 0 mm 3 mps 754 mmHg 59%
20:00 +26°C° 0 mm 3 mps 755 mmHg 59%
21:00 +25°C° 0 mm 3 mps 755 mmHg 60%
22:00 +24°C° 0 mm 3 mps 755 mmHg 61%
23:00 +22°C° 0 mm 3 mps 755 mmHg 62%

Day after tomorrow, 13 August, Thursday

Time Temperature Precipitation Wind Pressure Humidity
00:00 +21°C° 0 mm 3 mps 755 mmHg 63%
01:00 +20°C° 0 mm 3 mps 755 mmHg 64%
02:00 +19°C° 0 mm 2 mps 755 mmHg 66%
03:00 +19°C° 0 mm 2 mps 755 mmHg 69%
04:00 +18°C° 0 mm 2 mps 755 mmHg 72%
05:00 +19°C° 0 mm 2 mps 755 mmHg 69%
06:00 +20°C° 0 mm 2 mps 756 mmHg 66%
07:00 +21°C° 0 mm 2 mps 756 mmHg 63%
08:00 +25°C° 0 mm 2 mps 756 mmHg 56%
09:00 +27°C° 0 mm 2 mps 756 mmHg 48%
10:00 +29°C° 0 mm 2 mps 756 mmHg 40%
11:00 +30°C° 0 mm 2 mps 755 mmHg 39%
12:00 +31°C° 0 mm 2 mps 755 mmHg 38%
13:00 +32°C° 0 mm 2 mps 755 mmHg 37%
14:00 +32°C° 0 mm 2 mps 754 mmHg 36%
15:00 +32°C° 0 mm 2 mps 754 mmHg 35%
16:00 +32°C° 0 mm 1 mps 754 mmHg 34%
17:00 +31°C° 0 mm 2 mps 754 mmHg 39%
18:00 +29°C° 0 mm 2 mps 754 mmHg 45%
19:00 +27°C° 0 mm 3 mps 754 mmHg 51%
20:00 +26°C° 0 mm 3 mps 754 mmHg 53%
21:00 +25°C° 0 mm 3 mps 754 mmHg 54%
22:00 +25°C° 0 mm 3 mps 754 mmHg 56%
23:00 +24°C° 0 mm 3 mps 754 mmHg 57%

14 August, Friday

Time Temperature Precipitation Wind Pressure Humidity
00:00 +24°C° 0 mm 2 mps 753 mmHg 58%
01:00 +23°C° 0 mm 2 mps 753 mmHg 59%
02:00 +23°C° 0 mm 2 mps 753 mmHg 59%
03:00 +21°C° 0 mm 2 mps 753 mmHg 59%
04:00 +21°C° 0 mm 2 mps 753 mmHg 58%
05:00 +23°C° 0 mm 2 mps 753 mmHg 56%
06:00 +24°C° 0 mm 2 mps 753 mmHg 54%
07:00 +25°C° 0 mm 2 mps 753 mmHg 52%
08:00 +27°C° 0 mm 3 mps 753 mmHg 47%
09:00 +29°C° 0 mm 3 mps 753 mmHg 42%
10:00 +31°C° 0 mm 3 mps 753 mmHg 37%
11:00 +33°C° 0 mm 3 mps 753 mmHg 35%
12:00 +33°C° 0 mm 3 mps 752 mmHg 34%
13:00 +34°C° 0 mm 3 mps 752 mmHg 32%
14:00 +34°C° 0 mm 4 mps 752 mmHg 33%
15:00 +34°C° 0 mm 4 mps 751 mmHg 34%
16:00 +33°C° 0 mm 5 mps 751 mmHg 36%
17:00 +29°C° 0.4 mm 4 mps 751 mmHg 45%
18:00 +27°C° 0.4 mm 4 mps 751 mmHg 54%
19:00 +24°C° 0.4 mm 3 mps 751 mmHg 63%
20:00 +22°C° 0.3 mm 3 mps 751 mmHg 65%
21:00 +21°C° 0.3 mm 2 mps 752 mmHg 68%
22:00 +22°C° 0.3 mm 1 mps 752 mmHg 71%
23:00 +20°C° 0.1 mm 2 mps 752 mmHg 72%

15 August, Saturday

Time Temperature Precipitation Wind Pressure Humidity
00:00 +20°C° 0.1 mm 2 mps 752 mmHg 74%
01:00 +20°C° 0.1 mm 2 mps 751 mmHg 76%
02:00 +19°C° 0 mm 2 mps 751 mmHg 78%
03:00 +19°C° 0 mm 2 mps 751 mmHg 80%
04:00 +18°C° 0 mm 2 mps 751 mmHg 82%
05:00 +19°C° 0 mm 2 mps 751 mmHg 78%
06:00 +20°C° 0 mm 2 mps 751 mmHg 75%
07:00 +21°C° 0 mm 2 mps 752 mmHg 72%
08:00 +24°C° 0.1 mm 2 mps 752 mmHg 66%
09:00 +26°C° 0.1 mm 2 mps 752 mmHg 59%
10:00 +28°C° 0.1 mm 2 mps 752 mmHg 52%
11:00 +29°C° 0 mm 2 mps 752 mmHg 49%
12:00 +30°C° 0 mm 2 mps 751 mmHg 46%
13:00 +31°C° 0 mm 2 mps 751 mmHg 43%
14:00 +31°C° 0 mm 2 mps 751 mmHg 42%
15:00 +32°C° 0 mm 2 mps 750 mmHg 41%
16:00 +32°C° 0 mm 1 mps 750 mmHg 40%
17:00 +30°C° 0 mm 2 mps 750 mmHg 46%
18:00 +29°C° 0 mm 2 mps 750 mmHg 51%
19:00 +27°C° 0 mm 2 mps 750 mmHg 57%
20:00 +26°C° 0.1 mm 2 mps 750 mmHg 63%
21:00 +25°C° 0.1 mm 2 mps 750 mmHg 69%
22:00 +24°C° 0.1 mm 2 mps 751 mmHg 76%
23:00 +23°C° 0.3 mm 2 mps 751 mmHg 79%

16 August, Sunday

Time Temperature Precipitation Wind Pressure Humidity
00:00 +22°C° 0.3 mm 1 mps 751 mmHg 82%
01:00 +22°C° 0.3 mm 1 mps 751 mmHg 86%
02:00 +22°C° 0 mm 1 mps 751 mmHg 87%
03:00 +20°C° 0 mm 2 mps 751 mmHg 88%
04:00 +20°C° 0 mm 2 mps 750 mmHg 90%
05:00 +21°C° 0 mm 2 mps 751 mmHg 86%
06:00 +22°C° 0 mm 3 mps 751 mmHg 82%
07:00 +24°C° 0 mm 3 mps 751 mmHg 78%
08:00 +25°C° 0 mm 3 mps 751 mmHg 72%
09:00 +27°C° 0 mm 3 mps 751 mmHg 65%
10:00 +28°C° 0 mm 3 mps 751 mmHg 58%
11:00 +29°C° 0 mm 4 mps 751 mmHg 54%
12:00 +30°C° 0 mm 4 mps 751 mmHg 49%
13:00 +33°C° 0 mm 5 mps 750 mmHg 44%
14:00 +32°C° 0 mm 5 mps 750 mmHg 44%
15:00 +32°C° 0 mm 5 mps 750 mmHg 45%
16:00 +32°C° 0 mm 5 mps 750 mmHg 45%
17:00 +29°C° 0 mm 4 mps 750 mmHg 51%
18:00 +27°C° 0 mm 4 mps 750 mmHg 58%
19:00 +26°C° 0 mm 3 mps 750 mmHg 65%
20:00 +25°C° 0 mm 3 mps 750 mmHg 68%
21:00 +24°C° 0 mm 2 mps 751 mmHg 72%
22:00 +23°C° 0 mm 2 mps 751 mmHg 76%
23:00 +23°C° 0 mm 2 mps 751 mmHg 79%
Show more